Time,TemperatureF,DewpointF,PressureIn,WindDirection,WindDirectionDegrees,WindSpeedMPH,WindSpeedGustMPH,Humidity,HourlyPrecipIn,Conditions,Clouds,dailyrainin,SolarRadiationWatts/m^2,SoftwareType,DateUTC
2013-06-20 00:02:00,77.0,69.0,29.59,SE,144,0.0,4.0,77,0.00,,,0.00,0.000000,,2013-06-20 05:02:00,
2013-06-20 00:12:00,77.0,69.0,29.59,SE,144,0.0,4.0,77,0.00,,,0.00,0.000000,,2013-06-20 05:12:00,
2013-06-20 00:22:00,77.0,69.0,29.60,SSE,153,1.0,3.0,77,0.00,,,0.00,0.000000,,2013-06-20 05:22:00,
2013-06-20 00:33:00,77.0,69.0,29.60,SSW,196,0.0,2.0,77,0.00,,,0.00,0.000000,,2013-06-20 05:33:00,
2013-06-20 00:44:00,77.0,69.0,29.60,SSW,196,0.0,2.0,77,0.00,,,0.00,0.000000,,2013-06-20 05:44:00,
2013-06-20 00:53:00,77.0,69.0,29.60,SE,140,0.0,2.0,77,0.00,,,0.00,0.000000,,2013-06-20 05:53:00,
2013-06-20 01:01:00,77.0,69.0,29.60,SE,130,1.0,3.0,77,0.00,,,0.00,0.000000,,2013-06-20 06:01:00,
2013-06-20 01:11:00,77.0,69.0,29.60,SE,130,1.0,3.0,77,0.00,,,0.00,0.000000,,2013-06-20 06:11:00,
2013-06-20 01:22:00,77.0,69.0,29.60,SE,128,1.0,3.0,77,0.00,,,0.00,0.000000,,2013-06-20 06:22:00,
2013-06-20 01:33:00,77.0,70.0,29.59,ESE,113,1.0,5.0,78,0.00,,,0.00,0.000000,,2013-06-20 06:33:00,
2013-06-20 01:43:00,77.0,70.0,29.59,ESE,113,1.0,5.0,78,0.00,,,0.00,0.000000,,2013-06-20 06:43:00,
2013-06-20 01:53:00,76.0,69.0,29.59,SE,129,1.0,4.0,79,0.00,,,0.00,0.000000,,2013-06-20 06:53:00,
2013-06-20 02:01:00,76.0,69.0,29.59,ESE,121,1.0,4.0,80,0.00,,,0.00,0.000000,,2013-06-20 07:01:00,
2013-06-20 02:12:00,76.0,69.0,29.59,ESE,121,1.0,4.0,80,0.00,,,0.00,0.000000,,2013-06-20 07:12:00,
2013-06-20 02:22:00,76.0,70.0,29.59,ESE,119,0.0,2.0,81,0.00,,,0.00,0.000000,,2013-06-20 07:22:00,
2013-06-20 02:34:00,76.0,70.0,29.59,ESE,119,1.0,4.0,82,0.00,,,0.00,0.000000,,2013-06-20 07:34:00,
2013-06-20 02:44:00,76.0,70.0,29.59,ESE,119,1.0,4.0,82,0.00,,,0.00,0.000000,,2013-06-20 07:44:00,
2013-06-20 02:53:00,77.0,71.0,29.58,ENE,76,3.0,7.0,82,0.00,,,0.00,0.000000,,2013-06-20 07:53:00,
2013-06-20 03:02:00,77.0,71.0,29.57,ESE,123,4.0,10.0,83,0.00,,,0.00,0.000000,,2013-06-20 08:02:00,
2013-06-20 03:11:00,77.0,71.0,29.57,ESE,123,4.0,10.0,83,0.00,,,0.00,0.000000,,2013-06-20 08:11:00,
2013-06-20 03:22:00,77.0,71.0,29.57,SE,127,4.0,9.0,83,0.00,,,0.00,0.000000,,2013-06-20 08:22:00,
2013-06-20 03:34:00,77.0,71.0,29.57,SE,142,2.0,7.0,83,0.00,,,0.00,0.000000,,2013-06-20 08:34:00,
2013-06-20 03:43:00,77.0,71.0,29.57,SE,142,2.0,7.0,83,0.00,,,0.00,0.000000,,2013-06-20 08:43:00,
2013-06-20 03:53:00,77.0,71.0,29.57,East,99,2.0,8.0,83,0.00,,,0.00,0.000000,,2013-06-20 08:53:00,
2013-06-20 04:02:00,77.0,71.0,29.57,ESE,121,3.0,8.0,83,0.00,,,0.00,0.000000,,2013-06-20 09:02:00,
2013-06-20 04:12:00,77.0,71.0,29.57,ESE,121,3.0,8.0,83,0.00,,,0.00,0.000000,,2013-06-20 09:12:00,
2013-06-20 04:22:00,77.0,71.0,29.57,SE,140,3.0,8.0,83,0.00,,,0.00,0.000000,,2013-06-20 09:22:00,
2013-06-20 04:33:00,77.0,71.0,29.56,SE,125,2.0,8.0,83,0.00,,,0.00,0.000000,,2013-06-20 09:33:00,
2013-06-20 04:42:00,77.0,71.0,29.56,SE,125,2.0,8.0,83,0.00,,,0.00,0.000000,,2013-06-20 09:42:00,
2013-06-20 04:52:00,77.0,71.0,29.56,SE,125,2.0,8.0,83,0.00,,,0.00,0.000000,,2013-06-20 09:52:00,
2013-06-20 05:01:00,77.0,71.0,29.57,ESE,117,4.0,12.0,82,0.00,,,0.00,0.000000,,2013-06-20 10:01:00,
2013-06-20 05:11:00,77.0,71.0,29.57,ESE,117,4.0,12.0,82,0.00,,,0.00,0.000000,,2013-06-20 10:11:00,
2013-06-20 05:22:00,77.0,71.0,29.57,SSE,155,3.0,8.0,82,0.00,,,0.00,0.000000,,2013-06-20 10:22:00,
2013-06-20 05:33:00,77.0,71.0,29.57,ESE,105,3.0,7.0,82,0.00,,,0.00,0.000000,,2013-06-20 10:33:00,
2013-06-20 05:43:00,77.0,71.0,29.57,ESE,105,3.0,7.0,82,0.00,,,0.00,0.000000,,2013-06-20 10:43:00,
2013-06-20 05:53:00,77.0,71.0,29.58,SSE,155,5.0,8.0,82,0.00,,,0.00,0.000000,,2013-06-20 10:53:00,
2013-06-20 06:02:00,76.0,70.0,29.59,South,175,4.0,9.0,82,0.00,,,0.00,0.000000,,2013-06-20 11:02:00,
2013-06-20 06:11:00,76.0,70.0,29.59,South,175,4.0,9.0,82,0.00,,,0.00,0.000000,,2013-06-20 11:11:00,
2013-06-20 06:22:00,76.0,70.0,29.60,South,178,4.0,10.0,81,0.00,,,0.00,0.000000,,2013-06-20 11:22:00,
2013-06-20 06:34:00,76.0,70.0,29.61,SSE,156,2.0,8.0,82,0.00,,,0.00,0.000000,,2013-06-20 11:34:00,
2013-06-20 06:42:00,76.0,70.0,29.61,SSE,156,2.0,8.0,82,0.00,,,0.00,0.000000,,2013-06-20 11:42:00,
2013-06-20 06:53:00,76.0,70.0,29.61,SSE,157,1.0,7.0,83,0.00,,,0.00,9.000000,,2013-06-20 11:53:00,
2013-06-20 07:02:00,75.0,70.0,29.62,SE,125,3.0,7.0,84,0.00,,,0.00,18.000000,,2013-06-20 12:02:00,
2013-06-20 07:11:00,75.0,70.0,29.62,SE,125,3.0,7.0,84,0.00,,,0.00,18.000000,,2013-06-20 12:11:00,
2013-06-20 07:22:00,75.0,70.0,29.62,SSE,157,2.0,7.0,85,0.00,,,0.00,28.000000,,2013-06-20 12:22:00,
2013-06-20 07:34:00,75.0,71.0,29.63,SSE,158,1.0,9.0,86,0.00,,,0.00,40.000000,,2013-06-20 12:34:00,
2013-06-20 07:43:00,75.0,71.0,29.63,SSE,158,1.0,9.0,86,0.00,,,0.00,40.000000,,2013-06-20 12:43:00,
2013-06-20 07:53:00,76.0,72.0,29.63,ESE,103,2.0,9.0,86,0.00,,,0.00,54.000000,,2013-06-20 12:53:00,
2013-06-20 08:02:00,76.0,72.0,29.63,ESE,103,2.0,9.0,86,0.00,,,0.00,54.000000,,2013-06-20 13:02:00,
2013-06-20 08:11:00,76.0,72.0,29.63,ESE,103,2.0,9.0,86,0.00,,,0.00,54.000000,,2013-06-20 13:11:00,
2013-06-20 08:22:00,77.0,71.0,29.64,WSW,243,3.0,11.0,82,0.00,,,0.00,230.000000,,2013-06-20 13:22:00,
2013-06-20 08:33:00,78.0,71.0,29.65,SSE,159,5.0,11.0,80,0.00,,,0.00,283.000000,,2013-06-20 13:33:00,
2013-06-20 08:42:00,78.0,71.0,29.65,SSE,159,5.0,11.0,80,0.00,,,0.00,283.000000,,2013-06-20 13:42:00,
2013-06-20 08:53:00,79.0,72.0,29.65,SE,135,5.0,12.0,78,0.00,,,0.00,332.000000,,2013-06-20 13:53:00,
2013-06-20 09:01:00,79.0,71.0,29.66,SW,235,5.0,10.0,77,0.00,,,0.00,385.000000,,2013-06-20 14:01:00,
2013-06-20 09:11:00,79.0,71.0,29.66,SW,235,5.0,10.0,77,0.00,,,0.00,385.000000,,2013-06-20 14:11:00,
2013-06-20 09:22:00,80.0,71.0,29.66,SSW,202,2.0,11.0,75,0.00,,,0.00,438.000000,,2013-06-20 14:22:00,
2013-06-20 09:32:00,81.0,71.0,29.67,SSE,160,4.0,11.0,72,0.00,,,0.00,490.000000,,2013-06-20 14:32:00,
2013-06-20 09:42:00,81.0,71.0,29.67,SSE,160,4.0,11.0,72,0.00,,,0.00,490.000000,,2013-06-20 14:42:00,
2013-06-20 09:53:00,82.0,71.0,29.67,South,173,3.0,10.0,69,0.00,,,0.00,417.000000,,2013-06-20 14:53:00,
2013-06-20 10:02:00,83.0,71.0,29.68,SSW,204,4.0,12.0,68,0.00,,,0.00,603.000000,,2013-06-20 15:02:00,
2013-06-20 10:11:00,83.0,71.0,29.68,SSW,204,4.0,12.0,68,0.00,,,0.00,603.000000,,2013-06-20 15:11:00,
2013-06-20 10:22:00,84.0,70.0,29.68,SSE,167,4.0,9.0,63,0.00,,,0.00,504.000000,,2013-06-20 15:22:00,
2013-06-20 10:33:00,85.0,71.0,29.69,SSW,202,4.0,10.0,63,0.00,,,0.00,682.000000,,2013-06-20 15:33:00,
2013-06-20 10:43:00,85.0,71.0,29.69,SSW,202,4.0,10.0,63,0.00,,,0.00,682.000000,,2013-06-20 15:43:00,
2013-06-20 10:53:00,86.0,71.0,29.69,SE,128,5.0,11.0,61,0.00,,,0.00,724.000000,,2013-06-20 15:53:00,
2013-06-20 11:01:00,87.0,70.0,29.68,SSE,155,5.0,13.0,57,0.00,,,0.00,756.000000,,2013-06-20 16:01:00,
2013-06-20 11:11:00,87.0,70.0,29.68,SSE,155,5.0,13.0,57,0.00,,,0.00,756.000000,,2013-06-20 16:11:00,
2013-06-20 11:22:00,87.0,70.0,29.68,SW,215,3.0,10.0,58,0.00,,,0.00,796.000000,,2013-06-20 16:22:00,
2013-06-20 11:33:00,88.0,70.0,29.68,SE,134,4.0,11.0,55,0.00,,,0.00,826.000000,,2013-06-20 16:33:00,
2013-06-20 11:42:00,88.0,70.0,29.68,SE,134,4.0,11.0,55,0.00,,,0.00,826.000000,,2013-06-20 16:42:00,
2013-06-20 11:52:00,88.0,70.0,29.68,South,175,6.0,15.0,56,0.00,,,0.00,851.000000,,2013-06-20 16:52:00,
2013-06-20 12:01:00,88.0,70.0,29.68,SSW,196,4.0,15.0,55,0.00,,,0.00,882.000000,,2013-06-20 17:01:00,
2013-06-20 12:11:00,88.0,70.0,29.68,SSW,196,4.0,15.0,55,0.00,,,0.00,882.000000,,2013-06-20 17:11:00,
2013-06-20 12:22:00,89.0,72.0,29.67,SE,126,4.0,13.0,57,0.00,,,0.00,902.000000,,2013-06-20 17:22:00,
2013-06-20 12:32:00,89.0,71.0,29.67,ESE,123,3.0,16.0,55,0.00,,,0.00,925.000000,,2013-06-20 17:32:00,
2013-06-20 12:43:00,89.0,71.0,29.67,ESE,123,3.0,16.0,55,0.00,,,0.00,925.000000,,2013-06-20 17:43:00,
2013-06-20 12:53:00,90.0,72.0,29.67,ESE,114,3.0,14.0,55,0.00,,,0.00,947.000000,,2013-06-20 17:53:00,
2013-06-20 13:01:00,90.0,72.0,29.67,South,186,4.0,13.0,56,0.00,,,0.00,956.000000,,2013-06-20 18:01:00,
2013-06-20 13:11:00,90.0,72.0,29.67,South,186,4.0,13.0,56,0.00,,,0.00,956.000000,,2013-06-20 18:11:00,
2013-06-20 13:22:00,91.0,74.0,29.67,ESE,123,7.0,14.0,57,0.00,,,0.00,970.000000,,2013-06-20 18:22:00,
2013-06-20 13:33:00,91.0,72.0,29.66,East,95,7.0,16.0,54,0.00,,,0.00,976.000000,,2013-06-20 18:33:00,
2013-06-20 13:43:00,91.0,72.0,29.66,East,95,7.0,16.0,54,0.00,,,0.00,976.000000,,2013-06-20 18:43:00,
2013-06-20 13:53:00,92.0,73.0,29.66,ESE,107,5.0,16.0,55,0.00,,,0.00,977.000000,,2013-06-20 18:53:00,
2013-06-20 14:01:00,92.0,72.0,29.66,SE,141,4.0,12.0,53,0.00,,,0.00,974.000000,,2013-06-20 19:01:00,
2013-06-20 14:11:00,92.0,72.0,29.66,SE,141,4.0,12.0,53,0.00,,,0.00,974.000000,,2013-06-20 19:11:00,
2013-06-20 14:22:00,92.0,72.0,29.65,SSE,151,6.0,16.0,52,0.00,,,0.00,967.000000,,2013-06-20 19:22:00,
2013-06-20 14:34:00,93.0,73.0,29.64,South,188,7.0,13.0,53,0.00,,,0.00,960.000000,,2013-06-20 19:34:00,
2013-06-20 14:43:00,93.0,73.0,29.64,South,188,7.0,13.0,53,0.00,,,0.00,960.000000,,2013-06-20 19:43:00,
2013-06-20 14:52:00,93.0,72.0,29.64,SSE,155,7.0,17.0,50,0.00,,,0.00,946.000000,,2013-06-20 19:52:00,
2013-06-20 15:02:00,93.0,72.0,29.63,South,169,8.0,15.0,50,0.00,,,0.00,926.000000,,2013-06-20 20:02:00,
2013-06-20 15:11:00,93.0,72.0,29.63,South,169,8.0,15.0,50,0.00,,,0.00,926.000000,,2013-06-20 20:11:00,
2013-06-20 15:22:00,93.0,70.0,29.63,SSE,165,5.0,18.0,47,0.00,,,0.00,909.000000,,2013-06-20 20:22:00,
2013-06-20 15:33:00,94.0,71.0,29.63,SSE,166,4.0,16.0,47,0.00,,,0.00,893.000000,,2013-06-20 20:33:00,
2013-06-20 15:42:00,94.0,71.0,29.63,SSE,166,4.0,16.0,47,0.00,,,0.00,893.000000,,2013-06-20 20:42:00,
2013-06-20 15:52:00,94.0,69.0,29.62,ESE,112,7.0,13.0,45,0.00,,,0.00,858.000000,,2013-06-20 20:52:00,
2013-06-20 16:01:00,95.0,68.0,29.62,South,174,7.0,13.0,41,0.00,,,0.00,826.000000,,2013-06-20 21:01:00,
2013-06-20 19:11:00,92.0,68.0,29.59,South,175,4.0,12.0,46,0.00,,,0.00,53.000000,,2013-06-21 00:11:00,